ASTROCAST 0.2 (44083 NORAD) Tracking and Keplerian Element Data

This shows tracking and keplerian element data for the satellite.

Feedback or suggestion? Click here.




ElementValue
Catalog44083
NameASTROCAST 0.2
Epoch Orbit310
Epoch Day111.72868357
Epoch Year2019
RAAN172.1534
Inclination97.4744
Eccentricity0.0013285
Argument of Perigee205.1863
Mean Anonmoly154.8727
Mean Motion15.21308245
Decay Rate4.94E-06
L11 44083U 19018F 19111.72868357 .00000494 00000-0 25213-4 0 9991
L22 44083 97.4744 172.1534 0013285 205.1863 154.8727 15.21308245 3102

Live tracking and technical data element details for ASTROCAST 0.2 (NORAD 44083). ASTROCAST 0.2 can be tracked NOW for your location showing map with azimuth and elevation plus other details from your city location.

Track the satellite on the map from your city or location and see movement details for azimuth, elevation, latitude, longitude, range, height, and movement on the map or in text.







IsCatalogInMostPopularTable: catalog: 44083, numindb: 13
Update: records affected: 1



GetName: 44083 ASTROCAST 0.2

Hit Count: updated at: Tue, 23 Apr 2019 02:55:54 GMT